K9SET Weather Reports


time (UTC)temp
F
wind
direction
speed
knots
gust
knots
rain 1hr
in
rain 24hr
in
rain mn
in
humidity
%
barometer
mb
20211026170412 54 51 1.7 5.2 0.00 0.00 0.00 70 1017.5
20211026163339 56 53 2.6 4.3 0.00 0.00 0.00 75 1017.8
20211026160412 54 15 1.7 3.5 0.00 0.00 0.00 72 1017.8
20211026153350 54 34 1.7 3.5 0.00 0.00 0.00 75 1018.0
20211026150325 51 32 5.2 6.1 0.00 0.00 0.00 77 1018.0
20211026143357 52 25 2.6 6.1 0.00 0.00 0.00 77 1017.8
20211026140337 51 9 0.9 4.3 0.00 0.00 0.00 79 1018.0
20211026133324 49 338 0.0 2.6 0.00 0.00 0.00 81 1017.9
20211026130420 48 342 0.9 1.7 0.00 0.00 0.00 83 1017.8
20211026123400 48 30 0.0 2.6 0.00 0.00 0.00 82 1017.3
20211026120339 48 66 1.7 5.2 0.00 0.00 0.00 80 1017.1
20211026113419 48 19 2.6 7.8 0.00 0.00 0.00 80 1016.9
20211026110418 49 351 4.3 5.2 0.00 0.00 0.00 83 1016.9
20211026103327 49 357 1.7 7.8 0.00 0.00 0.00 86 1016.7
20211026100404 49 336 1.7 4.3 0.00 0.00 0.00 86 1016.3
20211026093322 49 315 0.0 4.3 0.00 0.00 0.00 87 1016.5
20211026090332 49 311 3.5 6.1 0.00 0.00 0.00 88 1016.1
20211026083402 49 359 0.9 2.6 0.00 0.00 0.00 90 1015.9
20211026080356 49 270 0.9 2.6 0.00 0.00 0.00 91 1015.6
20211026073332 49 3 0.9 2.6 0.00 0.00 0.00 91 1015.7
20211026063347 50 9 1.7 3.5 0.00 0.00 0.00 90 1014.9
20211026060405 50 286 4.3 7.8 0.00 0.00 0.00 90 1014.7
20211026053324 49 350 0.9 6.1 0.00 0.00 0.00 90 1014.6
20211026050328 49 339 2.6 7.0 0.00 0.00 0.00 91 1014.5
20211026043341 50 13 0.9 7.0 0.00 0.00 0.00 91 1014.4
20211026040339 50 307 2.6 6.1 0.00 0.00 0.00 90 1014.3
20211026023352 50 7 4.3 7.0 0.00 0.00 0.70 90 1014.0
20211026010331 52 355 1.7 6.1 0.00 0.00 0.70 89 1012.8
20211026003343 52 348 3.5 4.3 0.00 0.00 0.70 89 1012.3
20211026000355 52 5 2.6 6.1 0.00 0.00 0.70 90 1011.6
20211025230411 52 332 2.6 8.7 0.00 0.00 0.70 92 1010.5
20211025223329 52 262 5.2 12.2 0.00 0.00 0.70 93 1010.0
20211025220415 52 309 3.5 8.7 0.00 0.00 0.70 94 1009.7
20211025213338 52 295 5.2 7.0 0.00 0.00 0.70 93 1009.2
20211025210321 52 295 6.1 8.7 0.00 0.00 0.70 90 1009.1